Starlink 30980

operational
NORAD ID: 58476 Int'l Des: 2023-186 Owner: SPXS Country: US Constellation: starlink
LEOCIRCULAR

About Starlink 30980

Description loading...

Live Position

Loading 3D Globe...

Upcoming Passes

Altitude History

Altitude vs Time

uPlot chart will show altitude changes over time

Two-Line Element Set

1 58476U 23186D 25351.15288753 .00000482 00000-0 50736-4 0 9994
2 58476 43.0027 156.1183 0001368 267.0790 92.9895 15.02536187113434
Epoch: Dec 17, 2025 • Age: 9 hours

Current Status

Altitude 568.9 km
Velocity 7.58 km/s
Sub-Earth Point -36.69°S, 109.59°E
Launch Date Dec 3, 2023
Age 2 years
Type internet

Technical Details

Classification Payload
Mass 730.00 kg
Dry Mass 700.00 kg
Total Mass 730.00 kg
Length 0.30 m
Diameter 4.10 m
Span 29.00 m
Shape Box + pan
Manufacturer SPXS
Bus Type Starlink V2M
Phase Status In Orbit
Owner/State SPXS/US

Large Constellations

Loading constellations...